.
WxDataArchive / Data Records for 2011-07-25
2011-07-24 July 2011 2011-07-26

Data Records for Monday, 25 July 2011

Time	Temp	Chill	HIndex	Humid	Dewpt	 Wind 	HiWind	WindDir	Rain 	Barom 
-----	----	-----	------	-----	-----	------	------	-------	-----	----- 
00:00	73.9	73.9	73.9	94	72.1	0	0	---	0.00	29.930 
00:05	73.9	73.9	73.9	94	72.1	0	0	---	0.00	29.930 
00:10	74.0	74.0	74.0	94	72.2	0	0	---	0.00	29.930 
00:15	74.0	74.0	74.0	94	72.2	0	0	---	0.00	29.929 
00:20	74.0	74.0	74.0	94	72.2	0	1	90	0.00	29.929 
00:25	74.2	74.2	74.2	94	72.4	0	1	90	0.00	29.929 
00:30	74.2	74.2	74.2	94	72.4	0	2	90	0.00	29.927 
00:35	74.4	74.4	74.4	94	72.6	0	1	90	0.00	29.927 
00:40	74.4	74.4	74.4	94	72.6	0	2	90	0.00	29.927 
00:45	74.6	74.6	74.6	94	72.8	1	2	90	0.00	29.927 
00:50	74.6	74.6	74.6	94	72.8	0	2	90	0.00	29.927 
00:55	74.6	74.6	74.6	94	72.8	0	2	90	0.00	29.927 
01:00	74.6	74.6	74.6	94	72.8	0	1	90	0.00	29.920 
01:05	74.6	74.6	74.6	93	72.4	0	1	90	0.00	29.920 
01:10	74.4	74.4	74.4	93	72.2	0	1	90	0.00	29.920 
01:15	74.4	74.4	74.4	93	72.2	0	1	90	0.00	29.920 
01:20	74.4	74.4	74.4	93	72.2	0	1	90	0.00	29.920 
01:25	74.4	74.4	74.4	93	72.2	0	2	90	0.00	29.920 
01:30	74.4	74.4	74.4	93	72.2	0	2	90	0.00	29.920 
01:35	74.4	74.4	74.4	93	72.2	0	1	90	0.00	29.920 
01:40	74.4	74.4	74.4	93	72.2	0	1	90	0.00	29.920 
01:45	74.4	74.4	74.4	93	72.2	0	1	90	0.00	29.916 
01:50	74.4	74.4	74.4	93	72.2	0	1	90	0.00	29.916 
01:55	74.4	74.4	74.4	93	72.2	0	1	90	0.00	29.916 
02:00	74.4	74.4	74.4	93	72.2	0	1	90	0.00	29.907 
02:05	74.4	74.4	74.4	93	72.2	0	1	90	0.00	29.907 
02:10	74.2	74.2	74.2	93	72.0	0	0	---	0.00	29.907 
02:15	74.2	74.2	74.2	93	72.0	0	0	---	0.00	29.913 
02:20	74.0	74.0	74.0	93	71.8	0	0	---	0.00	29.913 
02:25	74.0	74.0	74.0	93	71.8	0	0	---	0.00	29.913 
02:30	73.9	73.9	73.9	93	71.7	0	0	---	0.00	29.911 
02:35	73.9	73.9	73.9	93	71.7	0	0	---	0.00	29.911 
02:40	73.9	73.9	73.9	93	71.7	0	1	90	0.00	29.911 
02:45	73.9	73.9	73.9	93	71.7	0	0	---	0.00	29.913 
02:50	73.9	73.9	73.9	93	71.7	0	0	---	0.00	29.913 
02:55	73.9	73.9	73.9	93	71.7	0	0	---	0.00	29.913 
03:00	73.7	73.7	73.7	93	71.5	0	0	---	0.00	29.911 
03:05	73.7	73.7	73.7	92	71.2	0	0	---	0.00	29.911 
03:10	73.5	73.5	73.5	92	71.0	0	0	---	0.00	29.911 
03:15	73.3	73.3	73.3	92	70.8	0	0	---	0.00	29.909 
03:20	73.2	73.2	73.2	92	70.7	0	0	---	0.00	29.909 
03:25	73.2	73.2	73.2	93	71.0	0	0	---	0.00	29.909 
03:30	73.2	73.2	73.2	93	71.0	0	0	---	0.00	29.900 
03:35	73.0	73.0	73.0	93	70.8	0	0	---	0.00	29.900 
03:40	73.0	73.0	73.0	93	70.8	0	0	---	0.00	29.900 
03:45	73.0	73.0	73.0	93	70.8	0	0	---	0.00	29.897 
03:50	73.0	73.0	73.0	93	70.8	0	0	---	0.00	29.897 
03:55	72.8	72.8	72.8	93	70.7	0	0	---	0.00	29.897 
04:00	72.7	72.7	72.7	93	70.6	0	0	---	0.00	29.895 
04:05	72.7	72.7	72.7	93	70.6	0	0	---	0.00	29.895 
04:10	72.7	72.7	72.7	93	70.6	0	0	---	0.00	29.895 
04:15	72.5	72.5	72.5	93	70.4	0	0	---	0.00	29.896 
04:20	72.5	72.5	72.5	93	70.4	0	0	---	0.00	29.896 
04:25	72.5	72.5	72.5	93	70.4	0	0	---	0.00	29.896 
04:30	72.3	72.3	72.3	93	70.2	0	0	---	0.00	29.896 
04:35	72.3	72.3	72.3	94	70.5	0	0	---	0.00	29.896 
04:40	72.5	72.5	72.5	94	70.7	0	0	---	0.00	29.896 
04:45	72.3	72.3	72.3	94	70.5	0	0	---	0.00	29.884 
04:50	72.3	72.3	72.3	94	70.5	0	0	---	0.00	29.884 
04:55	72.3	72.3	72.3	94	70.5	0	0	---	0.00	29.884 
05:00	72.3	72.3	72.3	94	70.5	0	0	---	0.00	29.885 
05:05	72.3	72.3	72.3	94	70.5	0	0	---	0.00	29.885 
05:10	72.3	72.3	72.3	94	70.5	0	0	---	0.00	29.885 
05:15	72.3	72.3	72.3	94	70.5	0	0	---	0.00	29.884 
05:20	72.5	72.5	72.5	94	70.7	0	0	---	0.00	29.884 
05:25	72.5	72.5	72.5	94	70.7	0	0	---	0.00	29.884 
05:30	72.3	72.3	72.3	94	70.5	0	0	---	0.00	29.887 
05:35	72.3	72.3	72.3	94	70.5	0	0	---	0.00	29.887 
05:40	72.3	72.3	72.3	95	70.8	0	0	---	0.00	29.887 
05:45	72.3	72.3	72.3	94	70.5	0	0	---	0.00	29.892 
05:50	72.1	72.1	72.1	95	70.6	0	0	---	0.00	29.892 
05:55	72.1	72.1	72.1	95	70.6	0	0	---	0.00	29.892 
06:00	72.3	72.3	72.3	95	70.8	0	0	---	0.00	29.893 
06:05	72.3	72.3	72.3	95	70.8	0	0	---	0.00	29.893 
06:10	72.5	72.5	72.5	95	71.0	0	0	---	0.00	29.893 
06:15	72.5	72.5	72.5	95	71.0	0	0	---	0.00	29.895 
06:20	72.5	72.5	72.5	95	71.0	0	0	---	0.00	29.895 
06:25	72.3	72.3	72.3	95	70.8	0	0	---	0.00	29.895 
06:30	72.3	72.3	72.3	95	70.8	0	0	---	0.00	29.896 
06:35	72.3	72.3	72.3	95	70.8	0	0	---	0.00	29.896 
06:40	72.3	72.3	72.3	95	70.8	0	0	---	0.00	29.896 
06:45	72.3	72.3	72.3	95	70.8	0	0	---	0.00	29.898 
06:50	72.3	72.3	72.3	95	70.8	0	0	---	0.00	29.898 
06:55	72.1	72.1	72.1	95	70.6	0	0	---	0.00	29.898 
07:00	72.3	72.3	72.3	95	70.8	0	0	---	0.00	29.906 
07:05	72.3	72.3	72.3	95	70.8	0	0	---	0.00	29.906 
07:10	72.3	72.3	72.3	95	70.8	0	0	---	0.00	29.906 
07:15	72.5	72.5	72.5	95	71.0	0	0	---	0.00	29.909 
07:20	72.5	72.5	72.5	95	71.0	0	1	90	0.00	29.909 
07:25	72.7	72.7	72.7	95	71.2	0	0	---	0.00	29.909 
07:30	72.7	72.7	72.7	95	71.2	0	1	90	0.00	29.912 
07:35	72.8	72.8	72.8	95	71.3	0	0	---	0.00	29.912 
07:40	72.8	72.8	72.8	95	71.3	0	0	---	0.00	29.912 
07:45	73.0	73.0	73.0	95	71.5	0	1	90	0.00	29.911 
07:50	73.0	73.0	73.0	95	71.5	0	3	90	0.00	29.911 
07:55	73.2	73.2	73.2	95	71.7	0	2	90	0.00	29.911 
08:00	73.2	73.2	73.2	95	71.7	0	2	90	0.00	29.913 
08:05	73.2	73.2	73.2	95	71.7	1	3	90	0.00	29.913 
08:10	73.2	73.2	73.2	95	71.7	1	2	90	0.00	29.913 
08:15	73.3	73.3	73.3	95	71.8	0	1	90	0.00	29.914 
08:20	73.3	73.3	73.3	95	71.8	0	1	90	0.00	29.914 
08:25	73.5	73.5	73.5	95	72.0	0	1	90	0.00	29.914 
08:30	73.7	73.7	73.7	95	72.2	0	1	90	0.00	29.913 
08:35	73.7	73.7	73.7	95	72.2	0	1	90	0.00	29.913 
08:40	73.9	73.9	73.9	95	72.4	0	0	---	0.00	29.913 
08:45	74.0	74.0	74.0	95	72.5	0	1	90	0.00	29.912 
08:50	74.2	74.2	74.2	94	72.4	0	0	---	0.00	29.912 
08:55	74.4	74.4	74.4	94	72.6	0	2	90	0.00	29.912 
09:00	74.6	74.6	74.6	94	72.8	0	2	90	0.00	29.912 
09:05	74.7	74.7	74.7	93	72.5	0	3	90	0.00	29.912 
09:10	74.7	74.7	74.7	92	72.2	0	2	90	0.00	29.912 
09:15	75.1	75.1	74.1	91	72.3	0	1	90	0.00	29.912 
09:20	75.6	75.6	75.1	91	72.8	0	1	90	0.00	29.912 
09:25	76.3	76.3	76.7	90	73.1	0	1	90	0.00	29.912 
09:30	76.3	76.3	77.0	86	71.8	1	3	90	0.00	29.913 
09:35	76.5	76.5	77.5	85	71.6	0	1	90	0.00	29.913 
09:40	77.0	77.0	78.4	84	71.8	0	2	90	0.00	29.913 
09:45	77.4	77.4	79.2	82	71.5	1	3	90	0.00	29.910 
09:50	77.7	77.7	79.8	82	71.8	1	3	90	0.00	29.910 
09:55	78.1	78.1	80.5	81	71.8	1	2	90	0.00	29.910 
10:00	78.5	78.5	81.2	80	71.8	0	2	90	0.00	29.909 
10:05	79.0	79.0	82.0	78	71.5	0	1	90	0.00	29.909 
10:10	79.4	79.4	82.8	78	71.9	0	2	292	0.00	29.909 
10:15	79.8	79.8	83.4	77	71.9	1	3	315	0.00	29.907 
10:20	79.8	79.8	83.2	75	71.1	1	4	315	0.00	29.907 
10:25	79.9	79.9	83.5	76	71.6	1	3	315	0.00	29.907 
10:30	80.3	80.3	84.0	74	71.2	1	3	315	0.00	29.910 
10:35	80.3	80.3	84.0	74	71.2	1	4	292	0.00	29.910 
10:40	80.3	80.3	84.0	74	71.2	1	3	315	0.00	29.910 
10:45	80.7	80.7	84.6	73	71.2	0	4	90	0.00	29.906 
10:50	81.1	81.1	85.3	73	71.6	2	4	90	0.00	29.906 
10:55	80.9	80.9	85.0	73	71.4	1	2	292	0.00	29.906 
11:00	80.3	80.3	83.9	73	70.8	1	4	292	0.00	29.912 
11:05	80.9	80.9	85.1	74	71.8	0	2	292	0.00	29.912 
11:10	81.4	81.4	85.9	73	71.9	0	3	292	0.00	29.912 
11:15	81.6	81.6	86.1	72	71.7	1	6	292	0.00	29.912 
11:20	81.8	81.8	86.5	72	71.9	1	5	292	0.00	29.912 
11:25	82.2	82.2	87.3	72	72.2	1	4	315	0.00	29.912 
11:30	82.6	82.6	87.3	69	71.4	1	5	292	0.00	29.912 
11:35	82.6	82.6	87.6	70	71.8	1	2	292	0.00	29.912 
11:40	82.6	82.6	87.8	71	72.2	1	3	292	0.00	29.912 
11:45	82.8	82.8	87.7	69	71.6	2	4	292	0.00	29.910 
11:50	83.2	83.2	88.2	68	71.5	1	3	315	0.00	29.910 
11:55	83.4	83.4	88.4	67	71.3	1	2	315	0.00	29.910 
12:00	83.8	83.8	89.7	69	72.5	0	2	315	0.00	29.907 
12:05	83.8	83.8	88.6	65	70.7	1	2	315	0.00	29.907 
12:10	84.0	84.0	89.2	66	71.4	1	3	315	0.00	29.907 
12:15	84.1	84.1	88.8	64	70.6	2	4	315	0.00	29.906 
12:20	84.7	84.7	90.3	65	71.6	1	4	292	0.00	29.906 
12:25	84.9	84.9	89.4	61	69.9	2	5	315	0.00	29.906 
12:30	84.9	84.9	89.7	62	70.4	1	4	270	0.00	29.902 
12:35	85.3	85.3	90.1	61	70.3	1	3	315	0.00	29.902 
12:40	84.7	84.7	89.0	61	69.7	2	4	270	0.00	29.902 
12:45	84.7	84.7	88.7	60	69.2	2	6	270	0.00	29.899 
12:50	85.1	85.1	89.1	59	69.1	1	4	270	0.00	29.899 
12:55	85.5	85.5	90.2	60	70.0	1	4	270	0.00	29.899 
13:00	85.1	85.1	88.5	57	68.1	2	4	315	0.00	29.895 
13:05	85.1	85.1	90.1	62	70.6	1	3	315	0.00	29.895 
13:10	85.3	85.3	89.2	58	68.8	1	3	315	0.00	29.895 
13:15	85.5	85.5	89.5	58	69.0	1	3	315	0.00	29.891 
13:20	85.9	85.9	89.9	57	68.9	1	4	315	0.00	29.891 
13:25	85.9	85.9	89.6	56	68.3	1	3	315	0.00	29.891 
13:30	86.5	86.5	91.3	58	69.9	1	4	270	0.00	29.889 
13:35	87.0	87.0	90.8	54	68.3	1	4	22	0.00	29.889 
13:40	87.0	87.0	90.8	54	68.3	1	2	338	0.00	29.889 
13:45	87.0	87.0	90.8	54	68.3	1	4	315	0.00	29.883 
13:50	86.3	86.3	90.6	57	69.2	1	4	292	0.00	29.883 
13:55	85.9	85.9	89.9	57	68.9	0	2	292	0.00	29.883 
14:00	85.9	85.9	90.2	58	69.4	1	2	315	0.00	29.882 
14:05	85.5	85.5	89.5	58	69.0	1	4	315	0.00	29.882 
14:10	85.7	85.7	89.9	58	69.2	1	4	270	0.00	29.882 
14:15	86.5	86.5	91.3	58	69.9	1	3	270	0.00	29.879 
14:20	87.0	87.0	92.3	58	70.4	1	4	292	0.00	29.879 
14:25	87.4	87.4	92.2	56	69.7	1	5	292	0.00	29.879 
14:30	87.4	87.4	91.5	54	68.7	1	4	315	0.00	29.875 
14:35	87.4	87.4	91.5	54	68.7	2	5	292	0.00	29.875 
14:40	88.0	88.0	93.0	55	69.8	1	4	292	0.00	29.875 
14:45	87.8	87.8	92.6	55	69.6	1	5	315	0.00	29.872 
14:50	87.2	87.2	91.1	54	68.5	1	4	22	0.00	29.872 
14:55	86.3	86.3	90.9	58	69.7	1	2	292	0.00	29.872 
15:00	86.1	86.1	91.3	60	70.6	0	2	180	0.00	29.872 
15:05	86.3	86.3	90.9	58	69.7	1	5	180	0.00	29.872 
15:10	86.1	86.1	90.2	57	69.1	1	5	22	0.00	29.872 
15:15	86.7	86.7	89.9	53	67.5	1	4	292	0.00	29.871 
15:20	87.6	87.6	92.2	55	69.4	1	3	292	0.00	29.871 
15:25	88.0	88.0	92.2	53	68.7	2	5	270	0.00	29.871 
15:30	88.2	88.2	91.8	51	67.7	2	4	292	0.00	29.866 
15:35	88.0	88.0	91.4	51	67.6	1	3	292	0.00	29.866 
15:40	87.4	87.4	91.1	53	68.1	0	3	292	0.00	29.866 
15:45	86.7	86.7	90.6	55	68.6	1	2	292	0.00	29.859 
15:50	87.2	87.2	90.4	52	67.4	2	4	315	0.00	29.859 
15:55	87.8	87.8	90.7	50	66.8	1	3	315	0.00	29.859 
16:00	88.2	88.2	90.7	48	66.0	2	4	315	0.00	29.857 
16:05	88.2	88.2	90.3	47	65.4	1	3	315	0.00	29.857 
16:10	88.4	88.4	89.3	43	63.0	1	4	270	0.00	29.857 
16:15	88.6	88.6	89.3	42	62.5	1	5	270	0.00	29.854 
16:20	88.6	88.6	89.9	44	63.9	1	5	315	0.00	29.854 
16:25	88.4	88.4	89.6	44	63.7	2	4	292	0.00	29.854 
16:30	88.4	88.4	87.9	38	59.5	2	6	292	0.00	29.851 
16:35	88.6	88.6	89.3	42	62.5	1	5	292	0.00	29.851 
16:40	88.4	88.4	88.7	41	61.7	1	5	292	0.00	29.851 
16:45	88.6	88.6	89.3	42	62.5	1	5	315	0.00	29.844 
16:50	88.6	88.6	88.7	40	61.1	1	4	292	0.00	29.844 
16:55	88.8	88.8	89.3	41	62.0	1	3	292	0.00	29.844 
17:00	88.8	88.8	89.6	42	62.7	2	8	292	0.00	29.844 
17:05	88.8	88.8	89.9	43	63.4	2	4	292	0.00	29.844 
17:10	88.6	88.6	89.0	41	61.8	2	4	292	0.00	29.844 
17:15	88.4	88.4	89.3	43	63.0	1	4	292	0.00	29.841 
17:20	88.2	88.2	89.0	43	62.8	2	6	292	0.00	29.841 
17:25	87.8	87.8	89.1	45	63.8	2	4	315	0.00	29.841 
17:30	87.8	87.8	89.4	46	64.4	1	2	315	0.00	29.837 
17:35	88.0	88.0	89.0	44	63.3	1	4	315	0.00	29.837 
17:40	87.8	87.8	88.5	43	62.5	1	3	338	0.00	29.837 
17:45	88.0	88.0	89.0	44	63.3	0	2	338	0.00	29.831 
17:50	88.0	88.0	88.7	43	62.7	1	3	338	0.00	29.831 
17:55	87.8	87.8	88.8	44	63.1	1	3	315	0.00	29.831 
18:00	87.8	87.8	88.8	44	63.1	0	2	315	0.00	29.827 
18:05	87.8	87.8	88.5	43	62.5	1	4	292	0.00	29.827 
18:10	87.6	87.6	88.5	44	63.0	1	5	292	0.00	29.827 
18:15	87.6	87.6	88.2	43	62.3	1	3	292	0.00	29.825 
18:20	87.8	87.8	88.5	43	62.5	0	2	292	0.00	29.825 
18:25	87.4	87.4	88.2	44	62.8	0	2	292	0.00	29.825 
18:30	87.2	87.2	88.2	45	63.2	0	1	292	0.00	29.820 
18:35	87.0	87.0	87.9	45	63.1	0	3	292	0.00	29.820 
18:40	87.0	87.0	87.9	45	63.1	1	2	292	0.00	29.820 
18:45	87.2	87.2	87.6	43	61.9	1	2	292	0.00	29.818 
18:50	87.2	87.2	87.6	43	61.9	2	4	292	0.00	29.818 
18:55	87.0	87.0	87.6	44	62.4	1	4	292	0.00	29.818 
19:00	86.7	86.7	87.5	45	62.8	1	4	292	0.00	29.822 
19:05	86.7	86.7	87.8	46	63.4	1	3	292	0.00	29.822 
19:10	86.5	86.5	87.5	46	63.2	1	3	292	0.00	29.822 
19:15	86.5	86.5	87.2	45	62.6	1	3	292	0.00	29.823 
19:20	86.5	86.5	87.5	46	63.2	1	3	292	0.00	29.823 
19:25	86.3	86.3	87.2	46	63.0	1	5	292	0.00	29.823 
19:30	86.1	86.1	87.5	48	64.1	1	3	292	0.00	29.824 
19:35	85.9	85.9	86.9	47	63.3	1	3	292	0.00	29.824 
19:40	85.9	85.9	87.2	48	63.9	0	2	292	0.00	29.824 
19:45	85.9	85.9	87.2	48	63.9	0	2	292	0.00	29.827 
19:50	85.9	85.9	87.2	48	63.9	1	3	292	0.00	29.827 
19:55	85.7	85.7	86.7	47	63.1	1	5	292	0.00	29.827 
20:00	85.5	85.5	86.6	48	63.5	1	5	270	0.00	29.827 
20:05	85.3	85.3	86.4	48	63.4	1	3	270	0.00	29.827 
20:10	85.1	85.1	86.1	48	63.2	1	3	292	0.00	29.827 
20:15	84.9	84.9	85.8	48	63.0	1	3	292	0.00	29.826 
20:20	84.7	84.7	85.6	48	62.8	1	2	292	0.00	29.826 
20:25	84.5	84.5	85.3	48	62.6	1	4	292	0.00	29.826 
20:30	84.3	84.3	85.3	49	63.0	0	1	292	0.00	29.824 
20:35	84.0	84.0	85.1	50	63.3	0	2	292	0.00	29.824 
20:40	83.8	83.8	84.9	50	63.1	0	1	292	0.00	29.824 
20:45	83.6	83.6	84.6	50	63.0	0	1	292	0.00	29.824 
20:50	83.2	83.2	84.3	51	63.2	0	0	---	0.00	29.824 
20:55	83.0	83.0	84.3	52	63.5	0	1	292	0.00	29.824 
21:00	82.6	82.6	83.8	52	63.2	0	0	---	0.00	29.826 
21:05	82.4	82.4	83.7	53	63.5	0	0	---	0.00	29.826 
21:10	82.0	82.0	83.4	54	63.7	0	0	---	0.00	29.826 
21:15	81.8	81.8	83.3	55	64.0	0	0	---	0.00	29.824 
21:20	81.4	81.4	83.1	57	64.7	0	0	---	0.00	29.824 
21:25	81.2	81.2	83.0	58	65.0	0	0	---	0.00	29.824 
21:30	81.1	81.1	83.0	59	65.4	0	0	---	0.00	29.819 
21:35	80.7	80.7	82.7	60	65.5	0	0	---	0.00	29.819 
21:40	80.5	80.5	82.7	62	66.3	0	1	292	0.00	29.819 
21:45	80.3	80.3	82.5	63	66.5	0	1	292	0.00	29.821 
21:50	80.1	80.1	82.3	63	66.3	0	1	292	0.00	29.821 
21:55	79.9	79.9	82.1	64	66.6	0	0	---	0.00	29.821 
22:00	79.8	79.8	82.1	65	67.0	0	0	---	0.00	29.824 
22:05	79.6	79.6	81.8	65	66.8	1	3	292	0.00	29.824 
22:10	79.4	79.4	81.6	66	67.0	0	1	292	0.00	29.824 
22:15	79.2	79.2	81.5	67	67.3	0	1	292	0.00	29.830 
22:20	79.0	79.0	81.3	68	67.5	0	2	292	0.00	29.830 
22:25	78.8	78.8	81.1	69	67.7	1	3	292	0.00	29.830 
22:30	78.5	78.5	80.7	70	67.9	0	1	292	0.00	29.830 
22:35	78.3	78.3	80.4	70	67.7	0	2	292	0.00	29.830 
22:40	78.1	78.1	80.2	71	67.9	0	2	292	0.00	29.830 
22:45	77.9	77.9	79.9	71	67.7	0	2	292	0.00	29.832 
22:50	77.7	77.7	79.7	72	67.9	0	0	---	0.00	29.832 
22:55	77.4	77.4	79.3	73	68.0	0	1	292	0.00	29.832 
23:00	77.2	77.2	79.0	73	67.9	0	0	---	0.00	29.832 
23:05	77.0	77.0	78.7	73	67.7	0	0	---	0.00	29.832 
23:10	76.8	76.8	78.4	74	67.9	0	1	292	0.00	29.832 
23:15	76.7	76.7	78.3	74	67.8	0	0	---	0.00	29.830 
23:20	76.5	76.5	78.0	75	68.0	0	0	---	0.00	29.830 
23:25	76.3	76.3	77.7	75	67.8	0	0	---	0.00	29.830 
23:30	76.1	76.1	77.4	76	68.0	0	0	---	0.00	29.830 
23:35	76.0	76.0	77.2	77	68.3	0	0	---	0.00	29.830 
23:40	75.6	75.6	76.7	77	67.9	0	0	---	0.00	29.830 
23:45	75.4	75.4	76.4	77	67.7	0	0	---	0.00	29.830 
23:50	75.1	75.1	76.0	78	67.8	0	0	---	0.00	29.830 
23:55	74.7	74.7	74.7	79	67.7	0	1	292	0.00	29.830 

CoCoRaHS
IN-AL-39
A2 Web Hosting
Creative Commons License
GoDaddy
search engine by freefind advanced

loaded 2018-11-19 10:22:15 • last modified 2010-11-18 10:43:29
Privacy PolicyDisclaimer
• wx.awcolley.com is powered by PmWiki v.2002016 •
• all content (unless otherwise noted) © 2018 A W Colley